AMC-6 (GE-6)

Last updated on Nov. 17, 2019, 4:19 a.m. UTC

1 26580U 00067A   19320.09007632 -.00000205  00000-0  00000+0 0  9993
2 26580   0.0157   1.4515 0002763 240.3173 122.5689  1.00271201 69877
UTC
Height (km)
Latitude
Longitude
Inclination
Orbital Period
UTC large
Height (km)
Speed (km/s)
/
Latitude / Longitude
Inclination (degrees)
Orbital Period (minutes)
Azimuth
Elevation
Range (km)
Doppler Factor
iOS Compass Heading
iOS Angle

Next 30 passes for location: Hong Kong

Rise time Rise Azimuth (degrees) Set time Set Azimuth (degrees) Duration Max altitude (degrees)

No matching passes for this satellites